Regional Weather Roundup
Issued by NWS

Home | Current Version | Previous Version | Graphics & Text | Print | Product List | Glossary On
Versions: 1 2 3 4 5 6 7 8 9 10 11 12 13 14 15 16 17 18 19 20 21 22 23 24 25 26 27 28 29 30 31 32 33 34 35 36 37 38 39 40 41 42 43 44 45 46 47 48 49 50
000
ASUS43 KIND 101509
RWRIN

WEATHER ROUNDUP FOR INDIANA
NATIONAL WEATHER SERVICE INDIANAPOLIS IN
1000 AM EST SUN DEC 10 2017

NOTE: "FAIR" INDICATES FEW OR NO CLOUDS BELOW 12,000 FEET WITH NO
SIGNIFICANT WEATHER AND/OR OBSTRUCTIONS TO VISIBILITY.

* - STATION DOES NOT REPORT WEATHER SUCH AS PRECIPITATION OR FOG.

+ - STATION NOT QUALITY CONTROLLED BY THE NATIONAL WEATHER SERVICE.
    USE DATA WITH CAUTION...ESPECIALLY DEWPOINT AND RELATIVE
    HUMIDITY OBSERVATIONS.

INZ001>003-010>013-019-020-101600-
NORTHWEST INDIANA

CITY           SKY/WX    TMP DP  RH WIND       PRES   REMARKS
GARY /AIRPORT/ PTSUNNY   27  18  69 S12       29.95F WCI  16
KNOX *+        CLOUDY    25  18  74 SW13      29.97F WCI  13
LA PORTE +     CLOUDY    23  17  77 SW10G16   29.96S WCI  12
MICHIGAN CITY+ CLOUDY    25  18  74 S12       29.96F WCI  14
MONTICELLO +   CLOUDY    25  16  68 SW14      30.00F WCI  13
RENSSELAER +   MOSUNNY   28  18  64 SW15      29.98F WCI  17
VALPARAISO     CLOUDY    25  18  74 SW18      29.95F WCI  11

$$

LMZ046-743>745-101600-
SOUTHERN LAKE MICHIGAN

STATION/POSITION TIME  TEMP    WIND        PRES    WAVE
                       AIR SEA DIR/SP/G            HT
                 (UTC) (F)     (DEG/KT/KT) (MB)    (FT)
BURNS HARBOR     1502   27     200/ 16/ 20 1013.9
MICHIGAN CITY    1440   23     180/ 10/ 12   N/A

$$

INZ004-005-014>016-021>024-101600-
NORTH CENTRAL INDIANA

CITY           SKY/WX    TMP DP  RH WIND       PRES   REMARKS
GOSHEN         CLOUDY    22  15  75 SW15      29.97F WCI   9
LOGANSPORT +   CLOUDY    25  18  74 SW14      30.02F WCI  13
PERU/GRISSOM   CLOUDY    24  17  74 S14       30.00F WCI  12
ROCHESTER +    CLOUDY    27  19  74 SW10      30.00F WCI  17
SOUTH BEND     CLOUDY    21  17  84 S12       29.95F WCI   9
WARSAW +       CLOUDY    23  16  74 SW8G16    29.99S WCI  14

$$

INZ006>009-017-018-025>027-101600-
NORTHEAST INDIANA

CITY           SKY/WX    TMP DP  RH WIND       PRES   REMARKS
AUBURN +       CLOUDY    23  16  74 SW8       30.00S WCI  14
FORT WAYNE     CLOUDY    23  17  78 SW14      30.01F WCI  11
HUNTINGTON +   CLOUDY    23  16  74 SW8       30.01S WCI  13
KENDALLVILLE + CLOUDY    22  15  77 SW13      29.97S WCI   9

$$

INZ028-029-035-036-043>045-051>053-101600-
WEST CENTRAL INDIANA

CITY           SKY/WX    TMP DP  RH WIND       PRES   REMARKS
CRAWFORDSVL +  CLOUDY    24  18  77 SW16G22     N/A  WCI  11
GREENCASTLE +  CLOUDY    27  18  69 SW7       30.08R WCI  19
LAFAYETTE      CLOUDY    25  18  74 SW14G22   30.02F WCI  13
TERRE HAUTE    CLOUDY    27  17  66 SW10      30.11R WCI  17

$$

INZ030>032-037>040-046>048-054>057-064-065-101600-
CENTRAL INDIANA

CITY           SKY/WX    TMP DP  RH WIND       PRES   REMARKS
COLUMBUS       PTSUNNY   25  16  68 S10       30.13S WCI  15
FRANKFORT +    CLOUDY    28  19  68 SW21      30.04S WCI  15
GREENWOOD *+   CLOUDY    28  20  72 SW9       30.08F WCI  19
INDIANAPOLIS   CLOUDY    26  16  65 SW14      30.07F WCI  14
-EAGLE CREEK   CLOUDY    26  15  63 S13G21    30.05F WCI  15
KOKOMO +       CLOUDY    25  18  74 SW15      30.03S WCI  13
MARION +       LGT SNOW  23  17  78 SW14      30.04S WCI  11
MT COMFORT *+  CLOUDY    23  19  86 SW10      30.06F WCI  12
SHELBYVILLE    CLOUDY    26  17  68 S14       30.08F WCI  14
ZIONSVILLE +   CLOUDY    25  16  69 SW16G23   30.05S WCI  12

$$

INZ033-034-041-042-049-050-058-059-101600-
EAST CENTRAL INDIANA

CITY           SKY/WX    TMP DP  RH WIND       PRES   REMARKS
MUNCIE         CLOUDY    25  16  68 SW10      30.04F WCI  15
RICHMOND +     CLOUDY    23  18  80 SW13G18   30.06F WCI  11

$$

INZ060-061-067>069-081>083-085>088-101600-
SOUTHWEST INDIANA

CITY           SKY/WX    TMP DP  RH WIND       PRES   REMARKS
EVANSVILLE     SUNNY     29  22  75 SW14      30.19F WCI  18
HUNTINGBURG +  CLOUDY    27  21  78 SW9       30.18S WCI  18
WASHINGTON +   CLOUDY    28  17  64 SW12      30.15S WCI  17

$$

INZ062-063-066-070>080-084-089>092-101600-
SOUTH CENTRAL AND SOUTHEAST INDIANA

CITY           SKY/WX    TMP DP  RH WIND       PRES   REMARKS
BEDFORD +      CLOUDY    27  18  69 SW9       30.13R WCI  17
BLOOMINGTON    CLOUDY    26  17  68 SW14      30.10S WCI  14
MADISON *+     CLOUDY    28  19  69 SW7       30.17S WCI  21
NORTH VERNON + CLOUDY    25  18  74 S12       30.13S WCI  14
SEYMOUR +      CLOUDY    28  18  64 S12       30.14F WCI  18

$$





USA.gov is the U.S. government's official web portal to all federal, state and local government web resources and services.